STARLINK-30556, 58031

Orbit data source: Space-Track

STARLINK-30556, 58031 is a payload satellite owned by SpaceX/Seattle (US) in LEO that was launched on Mon, 09 Oct 2023 UTC via an FALCON 9 launch vehicle from the Air Force Western Test Range (AFWTR). Payload-class satellites include a variety of spacecraft equipped with specific instruments for various scientific and technological missions. These include communications satellites like Starlink; space stations such as the ISS; scientific satellites like the Hubble; Earth observation satellites from companies like Planet Labs, Umbra, and HawkEye 360; GPS; miniature CubeSats for education and research; and military/defense satellites.

Loading next visibility...
Identifier
58031, 2023-156D
Orbit
LEO
Country
Flag of USUS
Related business
Manufacturer
SpaceX/Seattle
Mission
Operational Commercial Communications
Bus & Motor
STARLINK V2M, Unknown motor
Mass
730 kg wet, ~700 kg dry
Launch date (UTC)
2023-10-09 (3 years ago)
Launch vehicle
FALCON 9
Launch site
Air Force Western Test Range (AFWTR)
Object type
Payload
Rocket body
Debris
Shape & HBR
Box + 2 Pan, 17.7 m
Radar Cross Section
33.884 m², Large (>1 m²)

Expand to show TLE details & history
Last TLE update: 3 days ago

TLE from 3 days ago
0 STARLINK-30556
1 58031U 23156D   26170.73592291  .00000720  00000-0  32448-4 0  9992
2 58031  53.1618 333.0435 0001263 106.2702 253.8439 15.34396788151807
Epoch: 2026-06-19T17:39Z
TLE epoch observation values (Epoch: 2026-06-19T17:39:43.739Z)
Latitude
-0.00007°
Longitude
160.15058°
Altitude
463.855 km
Speed
7.636 km/s
True Right ascension
22h 12m 10s
True Declination
0° 00' 00"
Sunlit
Object was in full shadow at epoch
Visualization orbit readout
Latitude
Unknown
Longitude
Unknown
Altitude
Unknown
Speed
Unknown
Apparent Right ascension
Unknown
Apparent Declination
Unknown
Sunlit
N/A
Visualization observer readout
Local Sidereal Time
23:26:52
Azimuth
Unknown
Elevation
Unknown
Doppler factor
Unknown
Orbital elements
Apogee altitude
463.833 km
Perigee altitude
462.105 km
Semi-major axis
6,841.106 km
Eccentricity
0.00013
Inclination
53.1618°
RAAN
333.0435°
Arg. of periapsis
106.2702°
True anomaly
253.83°
Mean anomaly
253.8439°
Eccentric anomaly
253.83695°
Mean motion
3.83578 °/min
Orbital period
93.85 mins
BSTAR
0.000032448
Loading maneuver chart data...
Computing Atmospheric mass density...
Loading historical data...
Loading historical data...
Loading historical data...
Loading historical data...
Loading historical data...
Loading historical data...
Loading historical data...

Documentation

Showing up to 5 results
|